Weather History for Bainbridge, GA

Change the Weather History Date:

Friday, February 1, 2013

  Actual Average (KMAI) Record (KMAI)
Temperature  
Mean Temperature 48 °F 52 °F  
Max Temperature 62 °F 63 °F 73 °F (2011)
Min Temperature 35 °F 41 °F 30 °F (2000)
Degree Days  
Heating Degree Days 16    
Month to date heating degree days  
Since 1 July heating degree days  
Cooling Degree Days 0    
Month to date cooling degree days  
Year to date cooling degree days  
Moisture  
Dew Point 32 °F    
Average Humidity 61    
Maximum Humidity 93    
Minimum Humidity 29    
Precipitation  
Precipitation 0.00 in 0.17 in 1.38 in (2007)
Month to date precipitation 0.17  
Year to date precipitation 5.21  
Snow  
Snow 0.00 in - - ()
Since 1 July snowfall  
Snow Depth -    
Sea Level Pressure  
Sea Level Pressure 30.33 in    
Wind  
Wind Speed 5 mph (NW)    
Max Wind Speed 15 mph    
Max Gust Speed 20 mph    
Visibility 10 miles    
Events      
T = Trace of Precipitation, MM = Missing Value Source: NWS Daily Summary

Daily Weather History Graph

Daily Weather History Graph

Search for Another Location

Airport:

Trip Planner

Search our weather history database for the weather conditions in past years. The results will help you decide how hot, cold, wet, or windy it might be!

Date:

Astronomy

Feb. 01, 2013 Rise Set
Actual Time 7:30 AM EST 6:14 PM EST
Civil Twilight 7:04 AM EST 6:39 PM EST
Nautical Twilight 6:36 AM EST 7:08 PM EST
Astronomical Twilight 6:07 AM EST 7:37 PM EST
Moon 11:51 PM EST (2/1) 10:29 AM EST (2/1)
Length of Visible Light 11h 34m
Length of Day
10h 44m
Waning Gibbous, 70% of the Moon is Illuminated
Feb 1
Waning Gibbous
Feb 3
Last Quarter
Feb 10
New
Feb 17
First Quarter
Feb 25
Full

Hourly Weather History & Observations

Time (EST) Temp. Windchill Dew Point Humidity Pressure Visibility Wind Dir Wind Speed Gust Speed Precip Events Conditions
12:35 AM 37.4 °F - 35.6 °F 93% 30.29 in 10.0 mi Calm Calm - N/A   Clear
12:55 AM 39.2 °F 37.0 °F 35.6 °F 87% 30.29 in 10.0 mi WSW 3.5 mph - N/A   Clear
1:15 AM 37.4 °F 34.9 °F 33.8 °F 87% 30.30 in 10.0 mi West 3.5 mph - N/A   Clear
1:35 AM 37.4 °F - 35.6 °F 93% 30.30 in 10.0 mi Calm Calm - N/A   Clear
1:55 AM 39.2 °F 37.0 °F 35.6 °F 87% 30.30 in 10.0 mi SW 3.5 mph - N/A   Clear
2:15 AM 37.4 °F 34.9 °F 33.8 °F 87% 30.30 in 10.0 mi West 3.5 mph - N/A   Clear
2:35 AM 37.4 °F - 33.8 °F 87% 30.30 in 10.0 mi Calm Calm - N/A   Clear
2:55 AM 37.4 °F 34.9 °F 33.8 °F 87% 30.30 in 10.0 mi WSW 3.5 mph - N/A   Clear
3:15 AM 35.6 °F 32.8 °F 33.8 °F 93% 30.30 in 10.0 mi SW 3.5 mph - N/A   Clear
3:35 AM 35.6 °F 32.8 °F 33.8 °F 93% 30.30 in 10.0 mi WSW 3.5 mph - N/A   Clear
3:55 AM 35.6 °F 31.7 °F 33.8 °F 93% 30.31 in 10.0 mi WSW 4.6 mph - N/A   Clear
4:15 AM 37.4 °F 33.8 °F 33.8 °F 87% 30.30 in 10.0 mi West 4.6 mph - N/A   Clear
4:35 AM 37.4 °F 33.8 °F 33.8 °F 87% 30.30 in 10.0 mi West 4.6 mph - N/A   Clear
4:55 AM 37.4 °F 33.8 °F 33.8 °F 87% 30.30 in 10.0 mi West 4.6 mph - N/A   Clear
5:15 AM 37.4 °F 33.8 °F 33.8 °F 87% 30.29 in 10.0 mi WSW 4.6 mph - N/A   Clear
5:35 AM 37.4 °F 33.8 °F 33.8 °F 87% 30.29 in 10.0 mi WSW 4.6 mph - N/A   Clear
5:55 AM 39.2 °F 37.0 °F 35.6 °F 87% 30.29 in 10.0 mi West 3.5 mph - N/A   Clear
6:15 AM 39.2 °F - 35.6 °F 87% 30.29 in 10.0 mi Calm Calm - N/A   Clear
6:35 AM 37.4 °F 34.9 °F 33.8 °F 87% 30.30 in 10.0 mi SW 3.5 mph - N/A   Clear
6:55 AM 35.6 °F 32.8 °F 33.8 °F 93% 30.30 in 10.0 mi SSW 3.5 mph - N/A   Clear
7:35 AM 37.4 °F - 35.6 °F 93% 30.31 in 10.0 mi Calm Calm - N/A   Clear
7:55 AM 39.2 °F - 35.6 °F 87% 30.31 in 10.0 mi Calm Calm - N/A   Clear
8:15 AM 39.2 °F 37.0 °F 35.6 °F 87% 30.33 in 10.0 mi West 3.5 mph - N/A   Clear
8:55 AM 42.8 °F 38.6 °F 37.4 °F 81% 30.35 in 10.0 mi West 6.9 mph - N/A   Clear
9:15 AM 44.6 °F 40.7 °F 37.4 °F 76% 30.36 in 10.0 mi West 6.9 mph - N/A   Clear
9:35 AM 46.4 °F 42.9 °F 37.4 °F 71% 30.36 in 10.0 mi West 6.9 mph - N/A   Clear
9:55 AM 50.0 °F - 41.0 °F 71% 30.36 in 10.0 mi West 6.9 mph - N/A   Clear
10:15 AM 50.0 °F - 39.2 °F 66% 30.35 in 10.0 mi West 6.9 mph - N/A   Clear
10:35 AM 51.8 °F - 41.0 °F 67% 30.36 in 10.0 mi WNW 8.1 mph - N/A   Clear
10:55 AM 51.8 °F - 35.6 °F 54% 30.36 in 10.0 mi WNW 11.5 mph - N/A   Clear
11:15 AM 51.8 °F - 35.6 °F 54% 30.37 in 10.0 mi NW 10.4 mph - N/A   Clear
11:35 AM 53.6 °F - 37.4 °F 54% 30.36 in 10.0 mi WNW 11.5 mph - N/A   Clear
11:55 AM 53.6 °F - 35.6 °F 51% 30.37 in 10.0 mi NNW 13.8 mph - N/A   Clear
12:15 PM 55.4 °F - 35.6 °F 47% 30.36 in 10.0 mi NNW 10.4 mph 17.3 mph N/A   Clear
12:35 PM 55.4 °F - 33.8 °F 44% 30.36 in 10.0 mi NNW 13.8 mph - N/A   Clear
1:15 PM 59.0 °F - 35.6 °F 42% 30.34 in 10.0 mi NW 6.9 mph - N/A   Clear
1:35 PM 59.0 °F - 33.8 °F 39% 30.33 in 10.0 mi NW 9.2 mph - N/A   Clear
1:55 PM 59.0 °F - 33.8 °F 39% 30.33 in 10.0 mi NNW 10.4 mph 17.3 mph N/A   Clear
2:15 PM 59.0 °F - 33.8 °F 39% 30.33 in 10.0 mi WNW 11.5 mph 16.1 mph N/A   Clear
2:35 PM 59.0 °F - 32.0 °F 36% 30.32 in 10.0 mi WNW 15.0 mph 19.6 mph N/A   Clear
2:55 PM 59.0 °F - 32.0 °F 36% 30.32 in 10.0 mi WNW 12.7 mph 17.3 mph N/A   Clear
3:15 PM 59.0 °F - 32.0 °F 36% 30.31 in 10.0 mi WNW 11.5 mph - N/A   Clear
3:35 PM 60.8 °F - 32.0 °F 34% 30.31 in 10.0 mi WNW 9.2 mph - N/A   Clear
3:55 PM 62.6 °F - 32.0 °F 32% 30.31 in 10.0 mi WNW 12.7 mph - N/A   Clear
4:15 PM 62.6 °F - 30.2 °F 30% 30.30 in 10.0 mi NW 9.2 mph - N/A   Clear
4:35 PM 59.0 °F - 28.4 °F 31% 30.31 in 10.0 mi NNW 10.4 mph - N/A   Clear
4:55 PM 59.0 °F - 26.6 °F 29% 30.31 in 10.0 mi NW 11.5 mph - N/A   Clear
5:15 PM 59.0 °F - 26.6 °F 29% 30.32 in 10.0 mi NW 10.4 mph - N/A   Clear
5:35 PM 57.2 °F - 26.6 °F 31% 30.32 in 10.0 mi NW 6.9 mph - N/A   Clear
5:55 PM 57.2 °F - 28.4 °F 33% 30.32 in 10.0 mi North 4.6 mph - N/A   Clear
6:15 PM 53.6 °F - 28.4 °F 38% 30.31 in 10.0 mi NNW 5.8 mph - N/A   Clear
6:35 PM 51.8 °F - 28.4 °F 41% 30.32 in 10.0 mi North 3.5 mph - N/A   Clear
6:55 PM 51.8 °F - 32.0 °F 47% 30.33 in 10.0 mi North 4.6 mph - N/A   Clear
7:15 PM 51.8 °F - 30.2 °F 44% 30.33 in 10.0 mi North 5.8 mph - N/A   Clear
7:35 PM 50.0 °F - 28.4 °F 43% 30.34 in 10.0 mi North 5.8 mph - N/A   Clear
7:55 PM 48.2 °F - 26.6 °F 43% 30.35 in 10.0 mi North 4.6 mph - N/A   Clear
8:15 PM 46.4 °F 43.5 °F 24.8 °F 43% 30.35 in 10.0 mi North 5.8 mph - N/A   Clear
8:35 PM 46.4 °F 44.3 °F 23.0 °F 40% 30.35 in 10.0 mi North 4.6 mph - N/A   Clear
8:55 PM 44.6 °F 41.4 °F 23.0 °F 43% 30.35 in 10.0 mi North 5.8 mph - N/A   Clear
9:15 PM 44.6 °F 42.2 °F 21.2 °F 39% 30.36 in 10.0 mi North 4.6 mph - N/A   Clear
9:35 PM 44.6 °F 40.7 °F 21.2 °F 39% 30.36 in 10.0 mi North 6.9 mph - N/A   Clear
9:55 PM 44.6 °F 43.1 °F 21.2 °F 39% 30.36 in 10.0 mi North 3.5 mph - N/A   Clear
10:15 PM 42.8 °F 41.1 °F 21.2 °F 42% 30.36 in 10.0 mi NNE 3.5 mph - N/A   Clear
10:35 PM 42.8 °F 40.1 °F 23.0 °F 46% 30.36 in 10.0 mi NNE 4.6 mph - N/A   Clear
10:55 PM 42.8 °F 41.1 °F 23.0 °F 46% 30.36 in 10.0 mi North 3.5 mph - N/A   Clear
11:15 PM 37.4 °F - 28.4 °F 70% 30.37 in 10.0 mi Calm Calm - N/A   Clear
11:35 PM 37.4 °F - 28.4 °F 70% 30.37 in 10.0 mi Calm Calm - N/A   Clear
11:55 PM 35.6 °F - 30.2 °F 81% 30.37 in 10.0 mi Calm Calm - N/A   Clear